Lanai City, HI

6:58 AM HST on September 26, 2016 (GMT -1000)
Lanai City

Weather History for PHNY - March, 2013

Change the Weather History Date:

Saturday, March 2, 2013

  Actual Average Record
Temperature  
Mean Temperature 70 °F -  
Max Temperature 79 °F 75 °F 81 °F (2015)
Min Temperature 61 °F 59 °F 55 °F (1950)
Cooling Degree Days 5    
Growing Degree Days 20 (Base 50)    
Moisture  
Dew Point 55 °F    
Average Humidity 62    
Maximum Humidity 79    
Minimum Humidity 39    
Precipitation  
Precipitation 0.00 in - - ()
Sea Level Pressure  
Sea Level Pressure 30.12 in    
Wind  
Wind Speed 15 mph (NE)    
Max Wind Speed 24 mph    
Max Gust Speed 31 mph    
Averages and records for this station are not official NWS values.
T = Trace of Precipitation, MM = Missing Value Source: NWS Daily Summary

Daily Weather History Graph

Daily Weather History Graph

Search for Another Location

Airport or City:

Trip Planner

Search our weather history database for the weather conditions in past years. The results will help you decide how hot, cold, wet, or windy it might be!

Date:

Astronomy

Mar. 02, 2013 Rise Set
Actual Time 6:46 AM HST 6:33 PM HST
Civil Twilight 6:24 AM HST 6:55 PM HST
Nautical Twilight 5:58 AM HST 7:20 PM HST
Astronomical Twilight 5:33 AM HST 7:46 PM HST
Moon 11:35 PM HST (3/2) 10:09 AM HST (3/2)
Length of Visible Light 12h 30m
Length of Day
11h 46m
Waning Gibbous, 72% of the Moon is Illuminated
Mar 2
Waning Gibbous
Mar 4
Last Quarter
Mar 11
New
Mar 19
First Quarter
Mar 26
Full

Hourly Weather History & Observations

Time (HST) Temp. Dew Point Humidity Pressure Visibility Wind Dir Wind Speed Gust Speed Precip Events Conditions
12:56 AM 64.9 °F 52.0 °F 63% 30.12 in - NE 17.3 mph 21.9 mph N/A   Clear
1:56 AM 64.9 °F 55.9 °F 73% 30.10 in - ENE 16.1 mph 31.1 mph N/A   Clear
2:56 AM 63.9 °F 50.9 °F 63% 30.08 in - NE 20.7 mph 31.1 mph N/A   Clear
3:56 AM 63.9 °F 52.0 °F 65% 30.07 in - ENE 17.3 mph 23.0 mph N/A   Clear
4:56 AM 63.0 °F 52.0 °F 67% 30.09 in - NNE 11.5 mph 19.6 mph N/A   Clear
5:56 AM 63.9 °F 50.9 °F 63% 30.09 in - ENE 13.8 mph - N/A   Clear
6:56 AM 61.9 °F 52.0 °F 70% 30.12 in - NE 15.0 mph - N/A   Clear
7:56 AM 64.4 °F 51.8 °F 64% 30.19 in - ENE 6.9 mph - N/A   Clear
8:56 AM 70.9 °F 52.9 °F 53% 30.16 in - NE 8.1 mph - N/A   Clear
9:56 AM 74.8 °F 50.0 °F 42% 30.16 in - Variable 3.5 mph - N/A   Clear
10:56 AM 77.0 °F 54.0 °F 45% 30.14 in - Variable 3.5 mph - N/A   Mostly Cloudy
11:56 AM 77.0 °F 54.0 °F 45% 30.12 in - ESE 13.8 mph - N/A   Clear
12:56 PM 79.9 °F 52.9 °F 39% 30.08 in - NNE 12.7 mph 24.2 mph N/A   Clear
1:56 PM 78.8 °F 51.8 °F 39% 30.11 in - ESE 11.5 mph 27.6 mph N/A   Mostly Cloudy
2:56 PM 77.9 °F 56.8 °F 48% 30.05 in - NE 16.1 mph 23.0 mph N/A   Clear
3:56 PM 75.9 °F 56.8 °F 51% 30.06 in - North 10.4 mph - N/A   Mostly Cloudy
4:56 PM 70.9 °F 56.8 °F 61% 30.08 in - NE 12.7 mph 23.0 mph N/A   Mostly Cloudy
5:56 PM 68.9 °F 57.9 °F 68% 30.09 in - NNE 21.9 mph - N/A   Clear
6:56 PM 65.8 °F 57.9 °F 76% 30.12 in - NE 24.2 mph 28.8 mph N/A   Clear
7:56 PM 65.8 °F 59.0 °F 79% 30.14 in - NE 24.2 mph 27.6 mph N/A   Clear
8:56 PM 65.8 °F 59.0 °F 79% 30.16 in - NE 18.4 mph 23.0 mph N/A   Overcast
9:56 PM 65.8 °F 57.9 °F 76% 30.16 in - NE 19.6 mph 26.5 mph N/A   Clear
10:56 PM 66.2 °F 57.2 °F 73% 30.22 in - NE 21.9 mph - N/A   Mostly Cloudy
11:56 PM 65.8 °F 57.9 °F 76% 30.17 in - NE 19.6 mph - N/A   Mostly Cloudy